Location: Gwatt
(46.7204°N, 7.6223°E)
Time: 17:05:31
(UTC+00:00)

deb Explorer IX - Pass Details

Date: 25 January 2021
Orbit: 537 x 1102 km, 38.8° (Epoch: 04 March)

Event Time Altitude Azimuth Distance (km) Brightness Sun altitude
Rises 19:29:12 0° 261° (W) 3,557 ? -31.8°
Reaches altitude 10° 19:32:10 10° 253° (WSW) 2,516 ? -32.3°
Enters shadow 19:36:01 30° 220° (SW) 1,412 ? -33.0°
Maximum altitude 19:37:27 34° 190° (S) 1,251 - -33.2°
Drops below altitude 10° 19:42:02 10° 126° (SE) 2,161 - -34.0°
Sets 19:44:24 0° 117° (ESE) 2,991 - -34.4°
